• In Kazakhstan
  • List of Countries
  • For 7 days
  • Water Temperature
  • Weather Map
  • News
  • Weather Widgets
  • user-avatar
    Login

    Hourly Weather Khashuri

    Today, 18 January, Saturday

    Time Temperature Precipitation Wind Pressure Humidity
    00:00 -12°C° 0 mm 1 mps 609 mmHg 63%
    01:00 -12°C° 0 mm 1 mps 609 mmHg 63%
    02:00 -12°C° 0 mm 1 mps 609 mmHg 63%
    03:00 -13°C° 0 mm 1 mps 609 mmHg 63%
    04:00 -13°C° 0 mm 1 mps 608 mmHg 64%
    05:00 -13°C° 0 mm 1 mps 608 mmHg 65%
    06:00 -13°C° 0 mm 1 mps 608 mmHg 66%
    07:00 -12°C° 0 mm 1 mps 608 mmHg 67%
    08:00 -12°C° 0 mm 1 mps 609 mmHg 67%
    09:00 -11°C° 0 mm 1 mps 610 mmHg 69%
    10:00 -9°C° 0 mm 1 mps 610 mmHg 69%
    11:00 -8°C° 0 mm 1 mps 610 mmHg 68%
    12:00 -7°C° 0 mm 1 mps 610 mmHg 68%
    13:00 -7°C° 0 mm 1 mps 610 mmHg 69%
    14:00 -6°C° 0 mm 1 mps 610 mmHg 70%
    15:00 -6°C° 0 mm 0 mps 610 mmHg 72%
    16:00 -7°C° 0 mm 1 mps 609 mmHg 72%
    17:00 -9°C° 0 mm 1 mps 609 mmHg 73%
    18:00 -10°C° 0 mm 1 mps 608 mmHg 73%
    19:00 -10°C° 0 mm 1 mps 609 mmHg 72%
    20:00 -11°C° 0 mm 1 mps 609 mmHg 70%
    21:00 -11°C° 0 mm 1 mps 609 mmHg 69%
    22:00 -11°C° 0 mm 1 mps 609 mmHg 68%
    23:00 -11°C° 0 mm 1 mps 609 mmHg 67%

    Tomorrow, 19 January, Sunday

    Time Temperature Precipitation Wind Pressure Humidity
    00:00 -11°C° 0 mm 1 mps 609 mmHg 66%
    01:00 -13°C° 0 mm 2 mps 608 mmHg 66%
    02:00 -14°C° 0 mm 2 mps 608 mmHg 65%
    03:00 -14°C° 0 mm 2 mps 608 mmHg 65%
    04:00 -14°C° 0 mm 2 mps 608 mmHg 65%
    05:00 -14°C° 0 mm 2 mps 608 mmHg 65%
    06:00 -14°C° 0 mm 2 mps 608 mmHg 64%
    07:00 -13°C° 0 mm 2 mps 609 mmHg 65%
    08:00 -10°C° 0 mm 1 mps 609 mmHg 66%
    09:00 -9°C° 0 mm 1 mps 610 mmHg 66%
    10:00 -8°C° 0 mm 1 mps 610 mmHg 66%
    11:00 -6°C° 0 mm 1 mps 611 mmHg 67%
    12:00 -4°C° 0 mm 1 mps 611 mmHg 67%
    13:00 -3°C° 0 mm 1 mps 611 mmHg 69%
    14:00 -3°C° 0 mm 1 mps 611 mmHg 71%
    15:00 -3°C° 0 mm 1 mps 611 mmHg 74%
    16:00 -4°C° 0 mm 1 mps 611 mmHg 75%
    17:00 -7°C° 0 mm 1 mps 611 mmHg 76%
    18:00 -8°C° 0 mm 1 mps 611 mmHg 77%
    19:00 -9°C° 0 mm 2 mps 611 mmHg 76%
    20:00 -10°C° 0 mm 2 mps 611 mmHg 76%
    21:00 -10°C° 0 mm 2 mps 611 mmHg 76%
    22:00 -10°C° 0 mm 2 mps 611 mmHg 76%
    23:00 -10°C° 0 mm 2 mps 611 mmHg 77%

    Day after tomorrow, 20 January, Monday

    Time Temperature Precipitation Wind Pressure Humidity
    00:00 -12°C° 0 mm 2 mps 611 mmHg 77%
    01:00 -12°C° 0 mm 2 mps 612 mmHg 77%
    02:00 -12°C° 0 mm 2 mps 612 mmHg 78%
    03:00 -10°C° 0 mm 1 mps 612 mmHg 78%
    04:00 -10°C° 0 mm 1 mps 612 mmHg 78%
    05:00 -11°C° 0 mm 1 mps 612 mmHg 79%
    06:00 -11°C° 0 mm 1 mps 612 mmHg 79%
    07:00 -10°C° 0 mm 1 mps 612 mmHg 79%
    08:00 -9°C° 0 mm 1 mps 613 mmHg 79%
    09:00 -9°C° 0 mm 1 mps 613 mmHg 79%
    10:00 -7°C° 0 mm 1 mps 613 mmHg 78%
    11:00 -6°C° 0 mm 1 mps 614 mmHg 78%
    12:00 -3°C° 0 mm 1 mps 614 mmHg 77%
    13:00 -3°C° 0 mm 1 mps 614 mmHg 78%
    14:00 -4°C° 0 mm 0 mps 614 mmHg 79%
    15:00 -4°C° 0 mm 0 mps 614 mmHg 79%
    16:00 -5°C° 0 mm 0 mps 614 mmHg 81%
    17:00 -6°C° 0 mm 0 mps 613 mmHg 83%
    18:00 -8°C° 0 mm 0 mps 613 mmHg 84%
    19:00 -8°C° 0 mm 0 mps 613 mmHg 84%
    20:00 -9°C° 0 mm 0 mps 613 mmHg 84%
    21:00 -9°C° 0 mm 1 mps 613 mmHg 84%
    22:00 -10°C° 0 mm 1 mps 613 mmHg 84%
    23:00 -10°C° 0 mm 1 mps 613 mmHg 84%

    21 January, Tuesday

    Time Temperature Precipitation Wind Pressure Humidity
    00:00 -10°C° 0 mm 1 mps 612 mmHg 84%
    01:00 -11°C° 0 mm 1 mps 612 mmHg 84%
    02:00 -11°C° 0 mm 1 mps 612 mmHg 84%
    03:00 -11°C° 0 mm 1 mps 612 mmHg 85%
    04:00 -12°C° 0 mm 1 mps 612 mmHg 85%
    05:00 -12°C° 0 mm 1 mps 612 mmHg 86%
    06:00 -12°C° 0 mm 1 mps 612 mmHg 86%
    07:00 -11°C° 0 mm 1 mps 612 mmHg 86%
    08:00 -11°C° 0 mm 1 mps 613 mmHg 86%
    09:00 -10°C° 0 mm 1 mps 613 mmHg 86%
    10:00 -9°C° 0 mm 1 mps 613 mmHg 84%
    11:00 -8°C° 0 mm 1 mps 614 mmHg 83%
    12:00 -6°C° 0 mm 1 mps 614 mmHg 82%
    13:00 -6°C° 0 mm 1 mps 614 mmHg 83%
    14:00 -6°C° 0 mm 1 mps 614 mmHg 85%
    15:00 -6°C° 0 mm 1 mps 614 mmHg 86%
    16:00 -7°C° 0.1 mm 1 mps 614 mmHg 89%
    17:00 -8°C° 0.1 mm 1 mps 614 mmHg 91%
    18:00 -9°C° 0.1 mm 1 mps 614 mmHg 94%
    19:00 -9°C° 0.1 mm 1 mps 614 mmHg 94%
    20:00 -9°C° 0.1 mm 1 mps 614 mmHg 93%
    21:00 -9°C° 0.1 mm 1 mps 614 mmHg 93%
    22:00 -9°C° 0 mm 1 mps 614 mmHg 93%
    23:00 -10°C° 0 mm 1 mps 614 mmHg 93%

    22 January, Wednesday

    Time Temperature Precipitation Wind Pressure Humidity
    00:00 -10°C° 0 mm 1 mps 614 mmHg 93%
    01:00 -10°C° 0 mm 1 mps 614 mmHg 92%
    02:00 -10°C° 0 mm 1 mps 613 mmHg 92%
    03:00 -11°C° 0 mm 1 mps 613 mmHg 91%
    04:00 -11°C° 0 mm 1 mps 613 mmHg 91%
    05:00 -11°C° 0 mm 1 mps 613 mmHg 91%
    06:00 -11°C° 0 mm 1 mps 613 mmHg 91%
    07:00 -11°C° 0 mm 1 mps 613 mmHg 90%
    08:00 -11°C° 0 mm 1 mps 613 mmHg 89%
    09:00 -10°C° 0 mm 1 mps 613 mmHg 89%
    10:00 -9°C° 0 mm 1 mps 613 mmHg 86%
    11:00 -8°C° 0 mm 1 mps 613 mmHg 84%
    12:00 -7°C° 0 mm 1 mps 613 mmHg 82%
    13:00 -7°C° 0 mm 1 mps 613 mmHg 83%
    14:00 -6°C° 0 mm 1 mps 612 mmHg 83%
    15:00 -6°C° 0 mm 1 mps 612 mmHg 83%
    16:00 -7°C° 0 mm 1 mps 612 mmHg 85%
    17:00 -9°C° 0 mm 1 mps 612 mmHg 88%
    18:00 -10°C° 0 mm 1 mps 611 mmHg 90%
    19:00 -10°C° 0 mm 1 mps 611 mmHg 90%
    20:00 -10°C° 0 mm 1 mps 611 mmHg 91%
    21:00 -10°C° 0 mm 1 mps 610 mmHg 91%
    22:00 -11°C° 0 mm 1 mps 610 mmHg 90%
    23:00 -11°C° 0 mm 1 mps 610 mmHg 89%

    23 January, Thursday

    Time Temperature Precipitation Wind Pressure Humidity
    00:00 -11°C° 0 mm 1 mps 609 mmHg 88%
    01:00 -12°C° 0 mm 1 mps 609 mmHg 87%
    02:00 -12°C° 0 mm 1 mps 608 mmHg 87%
    03:00 -12°C° 0 mm 1 mps 607 mmHg 86%
    04:00 -13°C° 0 mm 1 mps 607 mmHg 85%
    05:00 -13°C° 0 mm 1 mps 606 mmHg 83%
    06:00 -13°C° 0 mm 1 mps 606 mmHg 82%
    07:00 -12°C° 0 mm 1 mps 606 mmHg 81%
    08:00 -11°C° 0 mm 1 mps 606 mmHg 79%
    09:00 -11°C° 0 mm 1 mps 606 mmHg 78%
    10:00 -9°C° 0 mm 1 mps 606 mmHg 76%
    11:00 -8°C° 0 mm 1 mps 606 mmHg 75%
    12:00 -7°C° 0 mm 1 mps 606 mmHg 73%
    13:00 -7°C° 0.1 mm 1 mps 606 mmHg 78%
    14:00 -7°C° 0.1 mm 1 mps 606 mmHg 83%
    15:00 -7°C° 0.1 mm 1 mps 605 mmHg 88%
    16:00 -8°C° 0.3 mm 1 mps 605 mmHg 90%
    17:00 -8°C° 0.3 mm 1 mps 605 mmHg 92%
    18:00 -8°C° 0.3 mm 1 mps 606 mmHg 94%
    19:00 -9°C° 0.1 mm 1 mps 605 mmHg 93%
    20:00 -9°C° 0.1 mm 1 mps 605 mmHg 92%
    21:00 -9°C° 0.1 mm 1 mps 605 mmHg 91%
    22:00 -10°C° 0 mm 1 mps 605 mmHg 89%
    23:00 -12°C° 0 mm 2 mps 605 mmHg 87%
    Show more